Regional Weather Roundup
Issued by NWS Glasgow, MT

Home | Current Version | Previous Version | Text Only | Print | Product List | Glossary On
Versions: 1 2 3 4 5 6 7 8 9 10 11 12 13 14 15 16 17 18 19 20 21 22 23 24 25 26 27
000
ASUS45 KGGW 011515
RWRGGW
HOURLY REGIONAL WEATHER ROUNDUP FOR NORTHEAST MONTANA
NATIONAL WEATHER SERVICE GLASGOW MONTANA
900 AM MDT SUN MAY 01 2016

NOTE: "FAIR" INDICATES FEW OR NO CLOUDS BELOW 12,000 FEET WITH NO
SIGNIFICANT WEATHER AND/OR OBSTRUCTIONS TO VISISBILITY.

NORTHEAST MONTANA


CITY           SKY/WX    TMP DP  RH WIND       PRES   REMARKS
GLASGOW        SUNNY     50  35  56 CALM      30.35S
PLENTYWOOD       N/A     54  29  38 SW1         N/A
WOLF POINT     SUNNY     49  35  58 CALM      30.36S
JORDAN           N/A     46  35  65 W3        30.35S
WINNETT          N/A     52  37  56 E2          N/A
SIDNEY         SUNNY     46  36  66 SE3       30.36S
GLENDIVE       SUNNY     50  36  57 S5        30.37S
SCOBEY           N/A     49  28  44 CALM      30.30F
OPHEIM           N/A     52  27  37 CALM      30.20F

FORT PECK REPORTS


CITY           SKY/WX    TMP DP  RH WIND       PRES   REMARKS
FORT PECK        N/A     47  40  76 SW3         N/A
THE PINES        N/A     50  37  61 S3          N/A

SOUTHEAST MONTANA


CITY           SKY/WX    TMP DP  RH WIND       PRES   REMARKS
BILLINGS       MOSUNNY   47  37  68 SW3       30.35S
MILES CITY     SUNNY     48  36  63 CALM      30.36S
BAKER          SUNNY     48  31  51 W6        30.36S
LIVINGSTON     SUNNY     47  33  58 E10       30.33S

CENTRAL MONTANA


CITY           SKY/WX    TMP DP  RH WIND       PRES   REMARKS
HAVRE          SUNNY     47  39  74 SW8       30.35S
LEWISTOWN      SUNNY     48  34  58 E5        30.35S
GREAT FALLS    SUNNY     44  36  73 SW3       30.34S
CUT BANK       SUNNY     43  38  82 W3        30.33F
HELENA         SUNNY     42  35  76 N3        30.33F
BUTTE          SUNNY     39  30  70 NE3       30.31S
BOZEMAN        SUNNY     43  35  73 NW7       30.32S

WESTERN MONTANA


CITY           SKY/WX    TMP DP  RH WIND       PRES   REMARKS
MISSOULA       SUNNY     46  39  76 W6        30.31S
KALISPELL      NOT AVBL

NORTH DAKOTA


CITY           SKY/WX    TMP DP  RH WIND       PRES   REMARKS
WILLISTON      SUNNY     49  31  49 CALM      30.36S
DICKINSON      SUNNY     48  32  53 W3        30.32S
MINOT          SUNNY     55  29  36 W6        30.33F
BISMARCK       SUNNY     50  33  52 SW5       30.34S

SOUTHERN SASKATCHEWAN


CITY           SKY/WX    TMP DP  RH WIND       PRES   REMARKS
REGINA         MOSUNNY   59  28  31 SW10      30.30F
ESTEVAN        MOSUNNY   54  30  40 S5        30.34F
SWIFT CURRENT  SUNNY     54  37  54 W10G36    30.30S





USA.gov is the U.S. government's official web portal to all federal, state and local government web resources and services.